Flag for U.S.A. Weather past 2 weeks in Warren, Michigan, U.S.A.

Now
83 °F

Sunny.


Feels Like: 82 °F
Forecast: 60 / 85 °F
Wind: 12 mph from South

Location: Detroit City Airport

Current Time: Jul 6, 2015 at 4:47:02 PM

Latest Report: Jul 6, 2015 at 3:53 PM


Visibility: 9 mi

Pressure: 30.00 "Hg

Humidity: 41%

Dew point: 57 °F

Location of WarrenLocation

Historic Weather in Warren — Graph

°F

Warren temperature yesterday

Maximum temperature yesterday: 81 °F (at 2:53 PM)
Minimum temperature yesterday: 63 °F (at 5:53 AM)
Average temperature yesterday: 72 °F

Past Weeks' High & Low Weather Summary

 TemperatureHumidityPressure
High84 °F (Jun 21, 5:53 PM)97% (Jul 1, 1:01 AM)30.15 "Hg (Jul 1, 1:01 AM)
Low53 °F (Jul 3, 5:53 AM)31% (Jun 24, 1:53 PM)29.69 "Hg (Jun 22, 11:53 PM)
Average68 °F68%29.94 "Hg
* Reported Jun 21 2:53 PM — Jul 6 2:53 PM, Warren, Weather by CustomWeather, © 2015

Note: Actual official high and low records may vary slightly from our data, if they occured in-between our weather recording intervals... More about our weather records

Advertising

Warren weather history for previous 24 hours

 ConditionsComfort  
Time TempWeatherWind HumidityBarometerVisibility
2:53 PM
Mon, Jul 6
82 °FSunny.12 mph48%30.01 "Hg10 mi
1:53 PM81 °FSunny.9 mph49%30.02 "Hg10 mi
12:53 PM81 °FSunny.10 mph53%30.02 "Hg10 mi
11:53 AM79 °FSunny.3 mph52%30.06 "Hg10 mi
10:53 AM78 °FSunny.7 mph54%30.06 "Hg10 mi
9:53 AM73 °FSunny.5 mph69%30.06 "Hg7 mi
8:53 AM69 °FSunny.No wind76%30.07 "Hg7 mi
7:53 AM65 °FSunny.No wind81%30.06 "Hg7 mi
6:53 AM62 °FClear.No wind80%30.06 "Hg7 mi
5:53 AM60 °FClear.No wind86%30.07 "Hg8 mi
4:53 AM62 °FClear.No wind83%30.06 "Hg9 mi
3:53 AM62 °FClear.No wind80%30.06 "Hg10 mi
2:53 AM64 °FClear.No wind75%30.06 "Hg10 mi
1:53 AM65 °FClear.3 mph73%30.06 "Hg10 mi
12:53 AM66 °FClear.No wind68%30.07 "Hg10 mi
11:53 PM
Sun, Jul 5
67 °FClear.3 mph66%30.08 "Hg10 mi
10:53 PM70 °FClear.3 mph55%30.09 "Hg10 mi
9:53 PM72 °FSunny.5 mph52%30.08 "Hg10 mi
8:53 PM74 °FSunny.5 mph50%30.07 "Hg10 mi
7:53 PM77 °FSunny.7 mph47%30.07 "Hg10 mi
6:53 PM78 °FSunny.5 mph48%30.08 "Hg10 mi
5:53 PM78 °FSunny.8 mph48%30.08 "Hg10 mi
4:53 PM80 °FSunny.10 mph49%30.09 "Hg10 mi
Weather by CustomWeather, © 2015

See weather overviewHow to use our weather pages